FW0954 Weather Reports


time (UTC)temp
F
wind
direction
speed
knots
gust
knots
rain 1hr
in
rain 24hr
in
rain mn
in
humidity
%
barometer
mb
20260904234502 98 156 0.9 5.2 0.00 0.00 0.00 51 1011.4
20260904233002 98 151 0.9 4.3 0.00 0.00 0.00 51 1011.2
20260904232502 97 154 0.9 5.2 0.00 0.00 0.00 52 1011.2
20260904232002 97 155 1.7 5.2 0.00 0.00 0.00 52 1011.2
20260904231501 97 151 0.9 5.2 0.00 0.00 0.00 53 1011.3
20260904231001 97 149 0.0 3.5 0.00 0.00 0.00 52 1011.3
20260904230501 98 136 0.9 5.2 0.00 0.00 0.00 52 1011.3
20260904230002 98 148 1.7 5.2 0.00 0.00 0.00 52 1011.3
20260904225502 98 160 1.7 5.2 0.00 0.00 0.00 52 1011.2
20260904225002 98 157 0.9 5.2 0.00 0.00 0.00 51 1011.4
20260904224501 97 154 0.9 5.2 0.00 0.00 0.00 52 1011.5
20260904224001 97 154 1.7 6.1 0.00 0.00 0.00 52 1011.4
20260904223501 98 147 1.7 6.1 0.00 0.00 0.00 52 1011.4
20260904223002 98 143 0.9 5.2 0.00 0.00 0.00 52 1011.4
20260904222002 99 151 1.7 6.1 0.00 0.00 0.00 49 1011.4
20260904221502 99 154 1.7 6.1 0.00 0.00 0.00 50 1011.4
20260904221002 100 145 1.7 5.2 0.00 0.00 0.00 50 1011.4
20260904220502 99 108 1.7 7.0 0.00 0.00 0.00 51 1011.4
20260904220002 99 90 1.7 7.0 0.00 0.00 0.00 51 1011.5
20260904215502 99 105 0.9 4.3 0.00 0.00 0.00 52 1011.5
20260904215002 99 134 0.9 4.3 0.00 0.00 0.00 53 1011.6
20260904214502 100 137 1.7 5.2 0.00 0.00 0.00 51 1011.7
20260904214002 100 130 0.9 5.2 0.00 0.00 0.00 51 1011.6
20260904213502 100 99 0.9 3.5 0.00 0.00 0.00 52 1011.7
20260904212501 100 141 1.7 5.2 0.00 0.00 0.00 51 1011.8
20260904212001 100 120 1.7 5.2 0.00 0.00 0.00 51 1011.9
20260904211502 100 137 1.7 5.2 0.00 0.00 0.00 51 1011.9
20260904211002 99 159 1.7 7.0 0.00 0.00 0.00 51 1011.9
20260904210502 99 142 2.6 7.0 0.00 0.00 0.00 51 1012.0
20260904205501 101 156 1.7 7.0 0.00 0.00 0.00 49 1012.2
20260904205002 101 162 1.7 7.0 0.00 0.00 0.00 49 1012.1
20260904204502 101 156 1.7 5.2 0.00 0.00 0.00 49 1012.2
20260904204002 100 158 1.7 7.0 0.00 0.00 0.00 49 1012.2
20260904203002 100 187 1.7 7.0 0.00 0.00 0.00 48 1012.4
20260904202002 100 183 1.7 5.2 0.00 0.00 0.00 49 1012.5
20260904201502 100 177 1.7 5.2 0.00 0.00 0.00 49 1012.6
20260904201002 100 176 2.6 6.1 0.00 0.00 0.00 50 1012.6
20260904200502 99 175 2.6 6.1 0.00 0.00 0.00 49 1012.7
20260904200002 99 182 2.6 8.7 0.00 0.00 0.00 50 1012.7
20260904195502 99 181 2.6 8.7 0.00 0.00 0.00 49 1012.9
20260904195002 98 184 1.7 6.1 0.00 0.00 0.00 51 1013.0
20260904194502 98 181 1.7 7.0 0.00 0.00 0.00 50 1013.0
20260904194002 98 169 1.7 7.0 0.00 0.00 0.00 51 1013.2
20260904193502 98 170 1.7 7.0 0.00 0.00 0.00 51 1013.2
20260904192002 99 176 0.9 6.1 0.00 0.00 0.00 51 1013.5
20260904191502 99 187 0.9 6.1 0.00 0.00 0.00 50 1013.3
20260904190503 99 168 2.6 6.1 0.00 0.00 0.00 50 1013.6
20260904190002 99 171 1.7 7.0 0.00 0.00 0.00 52 1013.5
20260904185502 98 176 2.6 7.8 0.00 0.00 0.00 52 1013.6
20260904185003 98 179 2.6 8.7 0.00 0.00 0.00 51 1013.7
20260904184002 98 211 1.7 6.1 0.00 0.00 0.00 54 1013.7
20260904183502 98 183 1.7 6.1 0.00 0.00 0.00 54 1013.9
20260904183003 97 194 2.6 8.7 0.00 0.00 0.00 55 1014.1
20260904182503 97 190 3.5 8.7 0.00 0.00 0.00 55 1014.1
20260904182003 97 186 1.7 8.7 0.00 0.00 0.00 56 1014.2
20260904181502 96 196 1.7 7.0 0.00 0.00 0.00 57 1014.2
20260904181003 96 184 2.6 12.2 0.00 0.00 0.00 57 1014.3
20260904180502 96 177 2.6 12.2 0.00 0.00 0.00 56 1014.4
20260904180002 96 187 1.7 7.0 0.00 0.00 0.00 56 1014.4
20260904175502 96 214 2.6 7.0 0.00 0.00 0.00 56 1014.4
20260904175003 96 204 2.6 7.8 0.00 0.00 0.00 56 1014.6
20260904174003 95 251 1.7 5.2 0.00 0.00 0.00 58 1014.7
20260904173502 95 223 1.7 4.3 0.00 0.00 0.00 58 1014.7
20260904173002 96 196 1.7 5.2 0.00 0.00 0.00 57 1014.8
20260904172502 95 182 1.7 6.1 0.00 0.00 0.00 57 1014.9
20260904172002 95 161 1.7 6.1 0.00 0.00 0.00 58 1014.9
20260904171503 94 164 1.7 5.2 0.00 0.00 0.00 59 1014.9
20260904170002 94 201 2.6 7.0 0.00 0.00 0.00 58 1015.0
20260904164502 93 194 1.7 7.8 0.00 0.00 0.00 61 1015.2
20260904163502 92 199 1.7 6.1 0.00 0.00 0.00 66 1015.2
20260904163002 92 202 2.6 7.0 0.00 0.00 0.00 65 1015.2
20260904162003 91 196 1.7 5.2 0.00 0.00 0.00 67 1015.3
20260904161503 91 182 1.7 6.1 0.00 0.00 0.00 69 1015.1
20260904161002 91 197 2.6 6.1 0.00 0.00 0.00 67 1015.2
20260904160503 90 222 1.7 6.1 0.00 0.00 0.00 70 1015.2
20260904160002 90 206 1.7 6.1 0.00 0.00 0.00 69 1015.4
20260904155002 89 173 1.7 6.1 0.00 0.00 0.00 72 1015.4
20260904154503 89 182 1.7 6.1 0.00 0.00 0.00 73 1015.2
20260904154003 89 182 1.7 6.1 0.00 0.00 0.00 72 1015.2
20260904153002 88 193 1.7 7.0 0.00 0.00 0.00 73 1015.2
20260904152002 88 184 2.6 8.7 0.00 0.00 0.00 75 1015.0
20260904151503 87 176 1.7 7.8 0.00 0.00 0.00 76 1015.0
20260904151002 87 174 1.7 7.0 0.00 0.00 0.00 79 1015.0
20260904150502 86 184 2.6 7.0 0.00 0.00 0.00 78 1015.0
20260904150003 86 188 2.6 6.1 0.00 0.00 0.00 79 1015.0
20260904145502 86 200 1.7 7.8 0.00 0.00 0.00 80 1015.1
20260904145003 86 197 1.7 7.8 0.00 0.00 0.00 82 1015.1
20260904144002 84 178 2.6 6.1 0.00 0.00 0.00 84 1015.1
20260904143503 84 181 2.6 7.0 0.00 0.00 0.00 84 1015.2
20260904142503 84 187 2.6 7.0 0.00 0.00 0.00 85 1015.2
20260904141503 83 183 2.6 7.8 0.00 0.00 0.00 86 1015.1
20260904141002 83 172 2.6 7.8 0.00 0.00 0.00 87 1015.0
20260904140503 82 173 2.6 7.0 0.00 0.00 0.00 87 1015.0
20260904140003 82 176 1.7 7.0 0.00 0.00 0.00 89 1015.1
20260904135503 82 170 1.7 7.0 0.00 0.00 0.00 90 1015.0
20260904135002 81 172 1.7 6.1 0.00 0.00 0.00 90 1015.0
20260904134503 81 183 0.9 4.3 0.00 0.00 0.00 91 1014.9
20260904133003 79 164 0.9 4.3 0.00 0.00 0.00 93 1014.7
20260904132502 79 165 0.9 3.5 0.00 0.00 0.00 94 1014.7
20260904132003 78 166 0.9 4.3 0.00 0.00 0.00 94 1014.7
20260904131502 78 166 0.9 6.1 0.00 0.00 0.00 94 1014.6
20260904131003 78 168 0.9 6.1 0.00 0.00 0.00 94 1014.6
20260904130502 78 172 0.9 5.2 0.00 0.00 0.00 94 1014.5
20260904130003 78 170 0.9 3.5 0.00 0.00 0.00 94 1014.5
20260904125503 77 168 0.9 4.3 0.00 0.00 0.00 94 1014.5
20260904125003 77 170 0.9 4.3 0.00 0.00 0.00 94 1014.5
20260904124503 77 175 0.9 4.3 0.00 0.00 0.00 95 1014.4
20260904124002 77 176 0.9 3.5 0.00 0.00 0.00 95 1014.3
20260904123503 77 170 0.0 2.6 0.00 0.00 0.00 95 1014.4
20260904123002 77 167 0.0 2.6 0.00 0.00 0.00 95 1014.5
20260904122503 77 173 0.9 2.6 0.00 0.00 0.00 95 1014.3
20260904121003 77 164 0.9 2.6 0.00 0.00 0.00 95 1014.3
20260904120003 77 166 0.9 3.5 0.00 0.00 0.00 94 1014.3
20260904115502 77 170 0.9 3.5 0.00 0.00 0.00 94 1014.2
20260904115003 77 165 0.9 3.5 0.00 0.00 0.00 94 1014.2
20260904114503 77 162 0.9 3.5 0.00 0.00 0.00 94 1014.0
20260904114003 77 166 0.9 4.3 0.00 0.00 0.00 94 1014.1
20260904113503 77 174 0.9 4.3 0.00 0.00 0.00 94 1014.0
20260904113003 77 166 0.9 2.6 0.00 0.00 0.00 94 1014.0
20260904112503 77 157 0.0 3.5 0.00 0.00 0.00 94 1013.9
20260904112003 77 165 0.9 4.3 0.00 0.00 0.00 94 1013.8
20260904111503 76 165 0.9 4.3 0.00 0.00 0.00 94 1013.8
20260904111003 76 159 0.0 3.5 0.00 0.00 0.00 93 1013.9
20260904110503 76 163 0.9 3.5 0.00 0.00 0.00 93 1013.9
20260904110003 77 167 0.9 4.3 0.00 0.00 0.00 93 1013.9
20260904105503 76 166 0.9 4.3 0.00 0.00 0.00 93 1013.9
20260904105003 76 163 0.9 2.6 0.00 0.00 0.00 93 1013.9
20260904104503 76 165 0.9 2.6 0.00 0.00 0.00 93 1013.9
20260904104003 76 167 0.0 2.6 0.00 0.00 0.00 93 1013.8
20260904102503 76 169 0.0 1.7 0.00 0.00 0.00 92 1013.8
20260904102003 76 163 0.0 3.5 0.00 0.00 0.00 92 1013.7
20260904101503 76 166 0.0 3.5 0.00 0.00 0.00 92 1013.6
20260904101003 76 172 0.0 1.7 0.00 0.00 0.00 92 1013.8
20260904100503 76 173 0.0 1.7 0.00 0.00 0.00 91 1013.7
20260904100003 76 173 0.0 0.9 0.00 0.00 0.00 90 1013.7
20260904095003 76 173 0.0 0.9 0.00 0.00 0.00 90 1013.6
20260904094503 76 173 0.0 0.9 0.00 0.00 0.00 90 1013.5
20260904094003 76 173 0.0 0.9 0.00 0.00 0.00 90 1013.6
20260904093503 76 173 0.0 0.9 0.00 0.00 0.00 89 1013.6
20260904092003 76 173 0.0 1.7 0.00 0.00 0.00 89 1013.6
20260904091503 76 173 0.0 1.7 0.00 0.00 0.00 89 1013.6
20260904091003 76 173 0.0 0.9 0.00 0.00 0.00 89 1013.6
20260904090502 76 173 0.0 0.9 0.00 0.00 0.00 88 1013.6
20260904085504 76 173 0.0 1.7 0.00 0.00 0.00 88 1013.5
20260904085003 76 173 0.0 0.9 0.00 0.00 0.00 88 1013.5
20260904084004 76 173 0.0 1.7 0.00 0.00 0.00 88 1013.6
20260904083503 76 173 0.0 1.7 0.00 0.00 0.00 88 1013.6
20260904083003 76 0 0.0 0.0 0.00 0.00 0.00 87 1013.5
20260904082003 77 173 0.0 1.7 0.00 0.00 0.00 87 1013.4
20260904081503 77 173 0.0 1.7 0.00 0.00 0.00 86 1013.5
20260904081003 77 172 0.0 1.7 0.00 0.00 0.00 86 1013.6
20260904080503 77 171 0.0 1.7 0.00 0.00 0.00 86 1013.6
20260904080004 77 171 0.0 1.7 0.00 0.00 0.00 86 1013.5
20260904075503 77 172 0.0 0.9 0.00 0.00 0.00 86 1013.4
20260904075004 77 171 0.0 1.7 0.00 0.00 0.00 85 1013.3
20260904074503 77 170 0.0 1.7 0.00 0.00 0.00 85 1013.2
20260904073003 77 159 0.0 0.9 0.00 0.00 0.00 85 1013.5
20260904072503 77 160 0.0 1.7 0.00 0.00 0.00 85 1013.6
20260904072003 77 156 0.0 1.7 0.00 0.00 0.00 84 1013.6
20260904071504 77 159 0.0 1.7 0.00 0.00 0.00 84 1013.6
20260904071003 77 168 0.0 1.7 0.00 0.00 0.00 84 1013.5
20260904070004 78 183 0.9 3.5 0.00 0.00 0.00 84 1013.5
20260904065504 78 184 0.9 3.5 0.00 0.00 0.00 84 1013.6
20260904065003 78 175 0.9 2.6 0.00 0.00 0.00 84 1013.7
20260904064504 78 178 0.9 2.6 0.00 0.00 0.00 83 1013.7
20260904064003 78 179 0.9 2.6 0.00 0.00 0.00 83 1013.7
20260904063503 78 175 0.9 3.5 0.00 0.00 0.00 83 1013.6
20260904063004 78 175 0.9 3.5 0.00 0.00 0.00 83 1013.6
20260904062503 78 172 0.0 1.7 0.00 0.00 0.00 83 1013.6
20260904062003 78 173 0.0 1.7 0.00 0.00 0.00 82 1013.6
20260904061504 78 173 0.0 1.7 0.00 0.00 0.00 82 1013.6
20260904061003 78 170 0.0 1.7 0.00 0.00 0.00 82 1013.7
20260904060503 78 177 0.0 1.7 0.00 0.00 0.00 82 1013.7
20260904060004 78 185 0.9 2.6 0.00 0.00 0.00 82 1013.6
20260904055504 78 190 0.9 2.6 0.00 0.00 0.00 81 1013.6
20260904055004 78 187 0.9 2.6 0.00 0.00 0.00 81 1013.7
20260904054504 78 183 0.9 2.6 0.00 0.00 0.00 81 1013.7
20260904054003 78 172 0.0 2.6 0.00 0.00 0.00 81 1013.6
20260904053504 78 191 0.0 2.6 0.00 0.00 0.00 81 1013.5
20260904053003 78 193 0.9 2.6 0.00 0.00 0.00 81 1013.5
20260904052501 78 171 0.9 2.6 0.00 0.00 0.00 80 1013.5
20260904052001 78 179 0.9 2.6 0.00 0.00 0.00 80 1013.6
20260904051501 78 194 0.0 2.6 0.00 0.00 0.00 80 1013.6
20260904051001 79 199 0.0 2.6 0.00 0.00 0.00 80 1013.6
20260904050501 79 199 0.0 2.6 0.00 0.00 0.00 80 1013.5
20260904050002 79 200 0.0 2.6 0.00 0.00 0.00 80 1013.6
20260904045502 79 201 0.0 2.6 0.00 0.00 0.00 79 1013.6
20260904045001 79 207 0.0 2.6 0.00 0.00 0.00 79 1013.6
20260904044501 79 187 0.9 2.6 0.00 0.00 0.00 79 1013.7
20260904042501 80 174 0.9 3.5 0.00 0.00 0.00 78 1013.7
20260904042001 80 170 0.9 3.5 0.00 0.00 0.00 78 1013.8
20260904041501 80 175 0.9 3.5 0.00 0.00 0.00 78 1013.8
20260904041001 80 174 0.9 3.5 0.00 0.00 0.00 77 1013.8
20260904040501 80 171 0.9 2.6 0.00 0.00 0.00 77 1013.7
20260904040002 80 182 0.9 2.6 0.00 0.00 0.00 77 1013.7
20260904035501 80 177 0.9 2.6 0.00 0.00 0.00 77 1013.7
20260904035001 80 176 0.9 2.6 0.00 0.00 0.00 77 1013.7
20260904034001 80 179 0.0 2.6 0.00 0.00 0.00 77 1013.6
20260904033001 81 166 0.9 3.5 0.00 0.00 0.00 76 1013.8
20260904032501 81 172 0.9 4.3 0.00 0.00 0.00 76 1013.8
20260904032001 81 175 1.7 4.3 0.00 0.00 0.00 76 1013.7
20260904030501 81 170 1.7 7.0 0.00 0.00 0.00 76 1013.7
20260904030002 81 171 1.7 7.0 0.00 0.00 0.00 76 1013.7
20260904025501 82 173 1.7 6.1 0.00 0.00 0.00 76 1013.6
20260904025001 82 170 1.7 6.1 0.00 0.00 0.00 76 1013.6
20260904024502 82 162 0.9 5.2 0.00 0.00 0.00 76 1013.5
20260904024002 82 165 0.9 5.2 0.00 0.00 0.00 76 1013.4
20260904023501 82 173 1.7 5.2 0.00 0.00 0.00 76 1013.2
20260904023001 82 171 0.9 6.1 0.00 0.00 0.00 76 1013.2
20260904022501 82 172 1.7 6.1 0.00 0.00 0.00 76 1012.9
20260904022001 82 181 1.7 6.1 0.00 0.00 0.00 76 1012.8
20260904021001 83 173 1.7 4.3 0.00 0.00 0.00 78 1012.7
20260904020501 83 173 1.7 4.3 0.00 0.00 0.00 78 1012.7
20260904020001 83 166 0.9 4.3 0.00 0.00 0.00 77 1012.7
20260904015501 83 165 1.7 4.3 0.00 0.00 0.00 76 1012.5
20260904015001 83 168 1.7 8.7 0.00 0.00 0.00 76 1012.5
20260904014501 84 167 1.7 8.7 0.00 0.00 0.00 75 1012.4
20260904014002 84 173 1.7 7.0 0.00 0.00 0.00 75 1012.4
20260904013501 84 175 2.6 5.2 0.00 0.00 0.00 75 1012.3
20260904013001 84 174 1.7 7.0 0.00 0.00 0.00 75 1012.3
20260904012502 84 173 1.7 7.0 0.00 0.00 0.00 75 1012.2
20260904012002 85 170 1.7 6.1 0.00 0.00 0.00 75 1012.1
20260904011501 85 169 1.7 7.0 0.00 0.00 0.00 74 1012.0
20260904011001 85 167 1.7 7.0 0.00 0.00 0.00 74 1012.0
20260904010001 86 177 2.6 6.1 0.00 0.00 0.00 74 1011.9
20260904004502 86 160 1.7 6.1 0.00 0.00 0.00 72 1012.0
20260904004001 86 162 1.7 7.0 0.00 0.00 0.00 72 1012.0
20260904003501 87 164 1.7 7.8 0.00 0.00 0.00 71 1012.0
20260904003001 87 163 1.7 7.8 0.00 0.00 0.00 70 1011.8
20260904002501 88 163 1.7 7.0 0.00 0.00 0.00 69 1011.9
20260904001501 88 161 1.7 6.1 0.00 0.00 0.00 68 1011.9
20260904001001 89 163 2.6 7.8 0.00 0.00 0.00 68 1011.8
20260904000502 89 160 3.5 7.8 0.00 0.00 0.00 67 1011.8
20260904000002 89 151 2.6 7.8 0.00 0.00 0.00 66 1011.8
20260903235501 90 156 2.6 6.1 0.00 0.00 0.00 65 1011.8
20260903235002 90 162 2.6 7.0 0.00 0.00 0.00 65 1011.7